EW2349 Weather Reports


time (UTC)temp
F
wind
direction
speed
knots
gust
knots
rain 1hr
in
rain 24hr
in
rain mn
in
humidity
%
barometer
mb
20260906214546 76 360 0.0 0.0 0.00 0.00 0.00 74 1007.5
20260906213043 75 360 0.0 0.0 0.00 0.00 0.00 76 1007.8
20260906211540 75 57 0.0 0.0 0.00 0.00 0.00 76 1008.1
20260906210039 75 360 0.0 0.0 0.00 0.00 0.00 76 1008.2
20260906204539 76 360 0.0 0.0 0.00 0.00 0.00 74 1008.4
20260906203041 76 360 0.0 0.0 0.00 0.00 0.00 74 1008.2
20260906201536 75 360 0.0 0.0 0.00 0.00 0.00 74 1008.2
20260906200034 75 360 0.0 0.0 0.00 0.00 0.00 76 1008.4
20260906194532 74 360 0.0 0.0 0.00 0.00 0.00 76 1008.5
20260906193033 74 360 0.0 0.0 0.00 0.00 0.00 77 1008.7
20260906191529 74 360 0.0 0.0 0.00 0.00 0.00 78 1008.5
20260906190027 73 360 0.0 0.0 0.00 0.00 0.00 78 1008.8
20260906184527 74 15 0.0 0.0 0.00 0.00 0.00 78 1008.8
20260906183043 74 20 0.0 0.0 0.00 0.00 0.00 78 1009.0
20260906181522 73 9 0.0 0.0 0.00 0.00 0.00 80 1009.4
20260906180022 73 5 0.0 0.0 0.00 0.00 0.00 80 1009.4
20260906174519 73 360 0.0 0.0 0.00 0.00 0.00 82 1009.2
20260906173017 72 5 0.0 0.0 0.00 0.00 0.00 83 1009.2
20260906171518 71 28 0.0 0.0 0.00 0.00 0.00 84 1009.4
20260906170012 71 20 0.0 0.0 0.00 0.00 0.00 85 1009.6
20260906164512 70 22 0.0 0.0 0.00 0.00 0.00 85 1009.6
20260906163011 70 360 0.0 0.0 0.00 0.00 0.00 85 1009.7
20260906161509 70 360 0.0 0.0 0.00 0.00 0.00 86 1009.9
20260906160009 69 360 0.0 0.0 0.00 0.00 0.00 86 1009.9
20260906154507 69 360 0.0 0.0 0.00 0.00 0.00 86 1010.2
20260906153006 70 360 0.0 0.0 0.00 0.00 0.00 84 1010.0
20260906151519 71 360 0.0 0.0 0.00 0.00 0.00 84 1009.4
20260906150007 71 5 0.0 0.0 0.00 0.00 0.00 84 1009.2
20260906144506 71 360 0.0 0.0 0.00 0.00 0.00 84 1008.7
20260906143002 71 355 0.0 0.0 0.00 0.00 0.00 86 1008.8
20260906141608 70 5 0.0 0.0 0.00 0.00 0.00 87 1009.0
20260906140057 69 360 0.0 0.0 0.00 0.00 0.00 90 1008.6
20260906134556 67 19 0.0 0.0 0.00 0.00 0.00 93 1009.5
20260906133050 66 57 0.0 0.0 0.00 0.00 0.00 95 1010.8
20260906131549 65 17 0.0 0.0 0.00 0.00 0.00 95 1010.3
20260906130056 64 19 0.0 0.0 0.00 0.00 0.00 95 1010.1
20260906124544 64 17 0.0 0.0 0.00 0.00 0.00 94 1009.7
20260906123042 63 360 0.0 0.0 0.00 0.00 0.00 94 1009.9
20260906121543 63 360 0.0 0.0 0.00 0.00 0.00 94 1009.9
20260906120037 63 355 0.0 0.0 0.00 0.00 0.00 93 1010.3
20260906114546 63 360 0.0 0.0 0.00 0.00 0.00 93 1010.6
20260906113045 63 360 0.0 0.0 0.00 0.00 0.00 93 1010.7
20260906111533 63 360 0.0 0.0 0.00 0.00 0.00 92 1010.9
20260906110033 64 360 0.0 0.0 0.00 0.00 0.00 92 1011.3
20260906104532 63 360 0.0 0.0 0.00 0.00 0.00 92 1011.4
20260906103029 64 360 0.0 0.0 0.00 0.00 0.00 91 1011.4
20260906101529 64 360 0.0 0.0 0.00 0.00 0.00 90 1011.3
20260906100023 66 55 0.0 0.0 0.00 0.00 0.00 88 1010.2
20260906094523 67 56 0.0 0.0 0.00 0.00 0.00 87 1009.6
20260906093022 68 67 0.0 0.0 0.00 0.00 0.00 87 1009.6
20260906091530 68 56 0.0 0.0 0.00 0.00 0.00 87 1009.9
20260906090017 68 38 0.0 0.0 0.00 0.00 0.00 88 1010.1
20260906084517 67 69 0.0 0.0 0.00 0.00 0.00 89 1010.2
20260906083015 66 5 0.0 0.0 0.00 0.00 0.00 88 1010.2
20260906081518 66 5 0.0 0.0 0.00 0.00 0.00 85 1010.0
20260906080011 68 5 0.0 0.0 0.00 0.00 0.00 84 1010.2
20260906074518 68 16 0.0 0.0 0.00 0.00 0.00 86 1010.3
20260906073008 68 17 0.0 0.0 0.00 0.00 0.00 87 1010.3
20260906071507 67 360 0.0 0.0 0.00 0.00 0.00 88 1010.5
20260906070006 67 360 0.0 0.0 0.00 0.00 0.00 88 1010.4
20260906064506 66 360 0.0 0.0 0.00 0.00 0.00 86 1010.4
20260906063001 67 360 0.0 0.0 0.00 0.00 0.00 85 1010.4
20260906061607 68 360 0.0 0.0 0.00 0.00 0.00 84 1010.7
20260906060056 67 360 0.0 0.0 0.00 0.00 0.00 85 1010.8
20260906054557 67 360 0.0 0.0 0.00 0.00 0.00 85 1011.0
20260906053054 67 360 0.0 0.0 0.00 0.00 0.00 83 1011.1
20260906051601 68 360 0.0 0.0 0.00 0.00 0.00 81 1011.1
20260906050055 69 360 0.0 0.0 0.00 0.00 0.00 80 1011.2
20260906044552 70 18 0.0 0.0 0.00 0.00 0.00 78 1011.2
20260906043051 71 20 0.0 0.0 0.00 0.00 0.00 77 1011.2
20260906041551 72 15 0.0 0.0 0.00 0.00 0.00 76 1011.3
20260906040050 72 360 0.0 0.0 0.00 0.00 0.00 75 1011.3
20260906034550 72 11 0.0 0.0 0.00 0.00 0.00 74 1011.4
20260906033052 72 360 0.0 0.0 0.00 0.00 0.00 73 1011.3
20260906031558 72 360 0.0 0.0 0.00 0.00 0.00 72 1011.4
20260906030048 73 360 0.0 0.0 0.00 0.00 0.00 72 1011.4
20260906024546 73 360 0.0 0.0 0.00 0.00 0.00 71 1011.2
20260906023044 73 360 0.0 0.0 0.00 0.00 0.00 71 1011.1
20260906021543 73 5 0.0 0.0 0.00 0.00 0.00 71 1010.7
20260906020040 73 360 0.0 0.0 0.00 0.00 0.00 69 1010.5
20260906014538 74 360 0.0 0.0 0.00 0.00 0.00 68 1010.3
20260906013037 74 360 0.0 0.0 0.00 0.00 0.00 67 1010.2
20260906011540 75 360 0.0 0.0 0.00 0.00 0.00 67 1010.0
20260906010034 75 355 0.0 0.0 0.00 0.00 0.00 65 1009.6
20260906004531 76 360 0.0 0.0 0.00 0.00 0.00 64 1009.2
20260906003031 78 351 0.0 0.0 0.00 0.00 0.00 60 1008.9
20260906001531 83 360 0.0 0.0 0.00 0.00 0.00 55 1008.6
20260906000032 83 5 0.0 0.0 0.00 0.00 0.00 54 1008.6
20260905234529 84 32 0.0 0.0 0.00 0.00 0.00 55 1008.4
20260905233028 84 360 0.0 0.0 0.00 0.00 0.00 56 1008.3
20260905231527 85 24 0.0 0.0 0.00 0.00 0.00 54 1008.3
20260905230028 84 360 0.0 0.0 0.00 0.00 0.00 55 1008.2
20260905224533 84 18 0.0 0.0 0.00 0.00 0.00 56 1008.2
20260905223023 85 360 0.0 0.0 0.00 0.00 0.00 54 1008.1
20260905221521 85 360 0.0 0.0 0.00 0.00 0.00 54 1008.2
20260905220020 84 360 0.0 0.0 0.00 0.00 0.00 54 1008.3